Retour au catalogue

ARIANE 5 R/B

ActifHEO
NORAD 38333·ROCKET BODY·🇫🇷 France

Lancé May 15, 2012 depuis Guiana Space Centre

Loading…

Prochains Passages (prochaines 24 heures)

TLE

FraisSource: Space-Track

Époque: Sep 14, 2026, 02:50 UTC

1 38333U 12023C   26257.11818615  .00003366  00000-0  10501-2 0  9998
2 38333   1.5420 248.2046 7062426 111.2481 332.6021  2.55503634126172

Suivez ARIANE 5 R/B en temps réel avec AllMySat

Download on the App Store